Time,TemperatureF,DewpointF,PressureIn,WindDirection,WindDirectionDegrees,WindSpeedMPH,WindSpeedGustMPH,Humidity,HourlyPrecipIn,Conditions,Clouds,dailyrainin,SoftwareType,DateUTC
2013-07-18 00:02:00,63.3,53.4,30.03,SSW,202,1.0,1.0,70,0.00,,,0.01,meteohub,2013-07-18 07:02:00,
2013-07-18 00:07:00,63.1,53.2,30.02,SSW,202,0.0,1.0,70,0.00,,,0.00,meteohub,2013-07-18 07:07:00,
2013-07-18 00:12:00,63.0,53.1,30.02,SSW,202,0.0,2.0,70,0.00,,,0.00,meteohub,2013-07-18 07:12:00,
2013-07-18 00:17:00,62.8,52.9,30.02,SSW,202,0.0,2.0,70,0.00,,,0.00,meteohub,2013-07-18 07:17:00,
2013-07-18 00:22:00,62.4,52.5,30.02,SSW,202,0.0,2.0,70,0.00,,,0.00,meteohub,2013-07-18 07:22:00,
2013-07-18 00:27:00,62.1,52.5,30.02,SSW,202,0.0,1.0,71,0.00,,,0.00,meteohub,2013-07-18 07:27:00,
2013-07-18 00:32:00,61.7,52.5,30.01,SSW,202,0.0,0.0,72,0.00,,,0.00,meteohub,2013-07-18 07:32:00,
2013-07-18 00:37:00,61.3,52.7,30.02,SSW,202,0.0,0.0,73,0.00,,,0.00,meteohub,2013-07-18 07:37:00,
2013-07-18 00:42:00,61.0,52.7,30.02,SSW,202,0.0,0.0,74,0.00,,,0.00,meteohub,2013-07-18 07:42:00,
2013-07-18 00:47:00,60.4,52.2,30.02,SSW,202,0.0,0.0,74,0.00,,,0.00,meteohub,2013-07-18 07:47:00,
2013-07-18 00:52:00,60.1,51.8,30.02,SSW,202,0.0,0.0,74,0.00,,,0.00,meteohub,2013-07-18 07:52:00,
2013-07-18 00:57:00,59.5,51.6,30.01,SSW,202,0.0,0.0,75,0.00,,,0.00,meteohub,2013-07-18 07:57:00,
2013-07-18 01:02:00,59.0,51.1,30.01,SSW,202,0.0,0.0,75,0.00,,,0.00,meteohub,2013-07-18 08:02:00,
2013-07-18 01:07:00,58.5,50.9,30.01,SSW,202,0.0,0.0,76,0.00,,,0.00,meteohub,2013-07-18 08:07:00,
2013-07-18 01:12:00,58.3,50.7,30.01,SSW,202,0.0,0.0,76,0.00,,,0.00,meteohub,2013-07-18 08:12:00,
2013-07-18 01:17:00,57.7,50.2,30.01,SSW,202,0.0,0.0,76,0.00,,,0.00,meteohub,2013-07-18 08:17:00,
2013-07-18 01:22:00,57.4,50.5,30.01,SSW,202,0.0,0.0,78,0.00,,,0.00,meteohub,2013-07-18 08:22:00,
2013-07-18 01:27:00,56.8,50.4,30.01,SSW,202,0.0,0.0,79,0.00,,,0.00,meteohub,2013-07-18 08:27:00,
2013-07-18 01:32:00,56.5,50.0,30.01,SSW,202,0.0,0.0,79,0.00,,,0.00,meteohub,2013-07-18 08:32:00,
2013-07-18 01:37:00,56.1,50.0,30.01,SSW,202,0.0,0.0,80,0.00,,,0.00,meteohub,2013-07-18 08:37:00,
2013-07-18 01:42:00,55.8,50.0,30.01,SSW,202,0.0,0.0,81,0.00,,,0.00,meteohub,2013-07-18 08:42:00,
2013-07-18 01:47:00,55.6,50.2,30.01,SSW,202,0.0,0.0,82,0.00,,,0.00,meteohub,2013-07-18 08:47:00,
2013-07-18 01:52:00,55.2,49.5,30.01,SSW,202,0.0,0.0,81,0.00,,,0.00,meteohub,2013-07-18 08:52:00,
2013-07-18 01:57:00,54.9,49.5,30.01,SSW,202,0.0,0.0,82,0.00,,,0.00,meteohub,2013-07-18 08:57:00,
2013-07-18 02:02:00,54.7,49.6,30.00,SSW,202,0.0,0.0,83,0.00,,,0.00,meteohub,2013-07-18 09:02:00,
2013-07-18 02:07:00,54.3,49.3,30.01,SSW,202,0.0,0.0,83,0.00,,,0.00,meteohub,2013-07-18 09:07:00,
2013-07-18 02:12:00,54.0,49.3,30.00,SSW,202,0.0,0.0,84,0.00,,,0.00,meteohub,2013-07-18 09:12:00,
2013-07-18 02:17:00,53.8,49.6,30.00,SSW,202,0.0,0.0,86,0.00,,,0.00,meteohub,2013-07-18 09:17:00,
2013-07-18 02:22:00,53.4,49.3,30.00,SSW,202,0.0,0.0,86,0.00,,,0.00,meteohub,2013-07-18 09:22:00,
2013-07-18 02:27:00,53.4,49.3,30.00,SSW,202,0.0,0.0,86,0.00,,,0.00,meteohub,2013-07-18 09:27:00,
2013-07-18 02:32:00,53.2,49.5,30.00,SSW,202,0.0,0.0,87,0.00,,,0.00,meteohub,2013-07-18 09:32:00,
2013-07-18 02:37:00,53.1,49.6,30.00,SSW,202,0.0,1.0,88,0.00,,,0.00,meteohub,2013-07-18 09:37:00,
2013-07-18 02:42:00,52.9,49.1,30.00,SSW,202,0.0,1.0,87,0.00,,,0.00,meteohub,2013-07-18 09:42:00,
2013-07-18 02:47:00,52.9,49.1,30.00,SSW,202,0.0,1.0,87,0.00,,,0.00,meteohub,2013-07-18 09:47:00,
2013-07-18 02:52:00,52.5,48.7,30.00,SSW,202,0.0,0.0,87,0.00,,,0.00,meteohub,2013-07-18 09:52:00,
2013-07-18 02:57:00,52.5,48.7,30.00,SSW,202,0.0,0.0,87,0.00,,,0.00,meteohub,2013-07-18 09:57:00,
2013-07-18 03:02:00,52.3,48.6,30.00,SSW,202,0.0,0.0,87,0.00,,,0.00,meteohub,2013-07-18 10:02:00,
2013-07-18 03:07:00,52.3,48.9,30.00,SSW,202,0.0,0.0,88,0.00,,,0.00,meteohub,2013-07-18 10:07:00,
2013-07-18 03:12:00,52.3,48.9,29.99,SSW,202,0.0,0.0,88,0.00,,,0.00,meteohub,2013-07-18 10:12:00,
2013-07-18 03:17:00,52.2,48.7,29.99,SSW,202,0.0,0.0,88,0.00,,,0.00,meteohub,2013-07-18 10:17:00,
2013-07-18 03:22:00,52.0,48.6,29.99,SSW,202,0.0,0.0,88,0.00,,,0.00,meteohub,2013-07-18 10:22:00,
2013-07-18 03:27:00,52.0,48.6,29.99,SSW,202,0.0,0.0,88,0.00,,,0.00,meteohub,2013-07-18 10:27:00,
2013-07-18 03:33:00,52.0,48.6,29.99,SSW,202,0.0,0.0,88,0.00,,,0.00,meteohub,2013-07-18 10:33:00,
2013-07-18 03:38:00,52.0,48.6,29.99,SSW,202,0.0,0.0,88,0.00,,,0.00,meteohub,2013-07-18 10:38:00,
2013-07-18 03:43:00,52.0,48.6,29.99,SSW,202,0.0,0.0,88,0.00,,,0.00,meteohub,2013-07-18 10:43:00,
2013-07-18 03:47:00,52.0,48.6,29.99,SSW,202,0.0,0.0,88,0.00,,,0.00,meteohub,2013-07-18 10:47:00,
2013-07-18 03:52:00,52.0,48.6,29.99,SSW,202,0.0,0.0,88,0.00,,,0.00,meteohub,2013-07-18 10:52:00,
2013-07-18 03:57:00,51.8,48.4,29.99,SSW,202,0.0,0.0,88,0.00,,,0.00,meteohub,2013-07-18 10:57:00,
2013-07-18 04:02:00,51.8,48.0,29.99,SSW,202,0.0,0.0,87,0.00,,,0.00,meteohub,2013-07-18 11:02:00,
2013-07-18 04:07:00,51.8,48.0,29.99,SSW,202,0.0,0.0,87,0.00,,,0.00,meteohub,2013-07-18 11:07:00,
2013-07-18 04:12:00,51.6,48.2,29.99,SSW,202,0.0,0.0,88,0.00,,,0.00,meteohub,2013-07-18 11:12:00,
2013-07-18 04:17:00,51.6,47.8,29.99,SSW,202,0.0,0.0,87,0.00,,,0.00,meteohub,2013-07-18 11:17:00,
2013-07-18 04:22:00,51.6,48.2,29.99,SSW,202,0.0,0.0,88,0.00,,,0.00,meteohub,2013-07-18 11:22:00,
2013-07-18 04:28:00,51.4,48.0,29.99,SSW,202,0.0,0.0,88,0.00,,,0.00,meteohub,2013-07-18 11:28:00,
2013-07-18 04:33:00,51.4,48.0,29.99,SSW,202,0.0,0.0,88,0.00,,,0.00,meteohub,2013-07-18 11:33:00,
2013-07-18 04:38:00,51.4,48.0,29.98,SSW,202,0.0,0.0,88,0.00,,,0.00,meteohub,2013-07-18 11:38:00,
2013-07-18 04:43:00,51.4,48.0,29.99,SSW,202,0.0,0.0,88,0.00,,,0.00,meteohub,2013-07-18 11:43:00,
2013-07-18 04:48:00,51.4,48.4,29.99,SSW,202,0.0,0.0,89,0.00,,,0.00,meteohub,2013-07-18 11:48:00,
2013-07-18 04:53:00,51.4,48.4,29.99,SSW,202,0.0,0.0,89,0.00,,,0.00,meteohub,2013-07-18 11:53:00,
2013-07-18 04:58:00,51.4,48.4,29.99,SSW,202,0.0,0.0,89,0.00,,,0.00,meteohub,2013-07-18 11:58:00,
2013-07-18 05:03:00,51.3,47.8,29.99,SSW,202,0.0,0.0,88,0.00,,,0.00,meteohub,2013-07-18 12:03:00,
2013-07-18 05:08:00,51.3,48.2,29.99,SSW,202,1.0,0.0,89,0.00,,,0.00,meteohub,2013-07-18 12:08:00,
2013-07-18 05:13:00,51.4,48.4,29.99,SSW,202,0.0,3.0,89,0.00,,,0.00,meteohub,2013-07-18 12:13:00,
2013-07-18 05:18:00,51.4,48.0,29.99,SSW,202,1.0,3.0,88,0.00,,,0.00,meteohub,2013-07-18 12:18:00,
2013-07-18 05:23:00,51.6,48.2,29.99,SSW,202,0.0,3.0,88,0.00,,,0.00,meteohub,2013-07-18 12:23:00,
2013-07-18 05:28:00,51.6,48.2,29.99,SSW,202,2.0,2.0,88,0.00,,,0.00,meteohub,2013-07-18 12:28:00,
2013-07-18 05:33:00,52.0,48.6,29.99,SSW,202,2.0,3.0,88,0.00,,,0.00,meteohub,2013-07-18 12:33:00,
2013-07-18 05:38:00,52.2,48.4,29.99,SSW,202,1.0,3.0,87,0.00,,,0.00,meteohub,2013-07-18 12:38:00,
2013-07-18 05:43:00,52.0,47.8,29.99,SSW,202,1.0,3.0,86,0.00,,,0.00,meteohub,2013-07-18 12:43:00,
2013-07-18 05:48:00,52.0,47.8,29.99,SSW,202,2.0,3.0,86,0.00,,,0.00,meteohub,2013-07-18 12:48:00,
2013-07-18 05:53:00,52.0,47.8,29.99,SSW,202,0.0,3.0,86,0.00,,,0.00,meteohub,2013-07-18 12:53:00,
2013-07-18 05:58:00,52.0,47.8,30.00,SSW,202,1.0,3.0,86,0.00,,,0.00,meteohub,2013-07-18 12:58:00,
2013-07-18 06:03:00,52.2,47.8,30.00,SSW,202,2.0,3.0,85,0.00,,,0.00,meteohub,2013-07-18 13:03:00,
2013-07-18 06:08:00,52.3,48.0,30.00,SSW,202,2.0,3.0,85,0.00,,,0.00,meteohub,2013-07-18 13:08:00,
2013-07-18 06:13:00,52.5,48.2,30.00,SSW,202,2.0,4.0,85,0.00,,,0.00,meteohub,2013-07-18 13:13:00,
2013-07-18 06:18:00,52.5,47.8,30.00,SSW,202,0.0,4.0,84,0.00,,,0.00,meteohub,2013-07-18 13:18:00,
2013-07-18 06:23:00,52.2,47.5,30.00,SSW,202,1.0,4.0,84,0.00,,,0.00,meteohub,2013-07-18 13:23:00,
2013-07-18 06:28:00,52.0,47.7,30.00,SSW,203,0.0,2.0,85,0.00,,,0.00,meteohub,2013-07-18 13:28:00,
2013-07-18 06:33:00,52.0,47.7,30.00,SSW,203,0.0,1.0,85,0.00,,,0.00,meteohub,2013-07-18 13:33:00,
2013-07-18 06:38:00,52.3,48.0,30.00,SSW,203,2.0,3.0,85,0.00,,,0.00,meteohub,2013-07-18 13:38:00,
2013-07-18 06:43:00,52.9,48.2,30.00,SSW,203,2.0,3.0,84,0.00,,,0.00,meteohub,2013-07-18 13:43:00,
2013-07-18 06:48:00,53.4,48.7,30.00,SSW,203,2.0,3.0,84,0.00,,,0.00,meteohub,2013-07-18 13:48:00,
2013-07-18 06:53:00,54.1,49.5,30.00,SSW,203,2.0,3.0,84,0.00,,,0.00,meteohub,2013-07-18 13:53:00,
2013-07-18 06:58:00,55.8,50.4,30.01,SSW,203,3.0,3.0,82,0.00,,,0.00,meteohub,2013-07-18 13:58:00,
2013-07-18 07:03:00,57.4,50.5,30.01,ESE,114,2.0,4.0,78,0.00,,,0.00,meteohub,2013-07-18 14:03:00,
2013-07-18 07:08:00,57.9,51.1,30.01,ESE,114,1.0,4.0,78,0.00,,,0.00,meteohub,2013-07-18 14:08:00,
2013-07-18 07:13:00,58.5,51.6,30.01,ESE,114,2.0,4.0,78,0.00,,,0.00,meteohub,2013-07-18 14:13:00,
2013-07-18 07:18:00,59.7,50.7,30.00,ESE,113,1.0,4.0,72,0.00,,,0.00,meteohub,2013-07-18 14:18:00,
2013-07-18 07:23:00,61.2,52.9,30.01,ESE,113,0.0,4.0,74,0.00,,,0.00,meteohub,2013-07-18 14:23:00,
2013-07-18 07:28:00,62.1,53.6,30.01,ESE,113,1.0,4.0,74,0.00,,,0.00,meteohub,2013-07-18 14:28:00,
2013-07-18 07:33:00,62.4,53.6,30.01,ESE,113,0.0,4.0,73,0.00,,,0.00,meteohub,2013-07-18 14:33:00,
2013-07-18 07:38:00,63.0,53.4,30.01,ESE,113,0.0,3.0,71,0.00,,,0.00,meteohub,2013-07-18 14:38:00,
2013-07-18 07:43:00,63.1,53.6,30.01,ESE,113,0.0,2.0,71,0.00,,,0.00,meteohub,2013-07-18 14:43:00,
2013-07-18 07:48:00,63.5,55.0,30.01,ESE,113,0.0,2.0,74,0.00,,,0.00,meteohub,2013-07-18 14:48:00,
2013-07-18 07:53:00,63.9,54.7,30.01,ESE,113,0.0,2.0,72,0.00,,,0.00,meteohub,2013-07-18 14:53:00,
2013-07-18 07:58:00,64.0,54.1,30.01,ESE,113,1.0,1.0,70,0.00,,,0.00,meteohub,2013-07-18 14:58:00,
2013-07-18 08:04:00,64.8,53.6,30.01,ESE,112,0.0,3.0,67,0.00,,,0.00,meteohub,2013-07-18 15:04:00,
2013-07-18 08:09:00,65.8,52.9,30.01,East,88,0.0,3.0,63,0.00,,,0.00,meteohub,2013-07-18 15:09:00,
2013-07-18 08:14:00,66.9,53.1,30.01,SE,134,0.0,3.0,61,0.00,,,0.00,meteohub,2013-07-18 15:14:00,
2013-07-18 08:19:00,67.6,54.1,30.01,ESE,123,1.0,2.0,62,0.00,,,0.00,meteohub,2013-07-18 15:19:00,
2013-07-18 08:24:00,68.9,53.1,30.01,ESE,115,1.0,3.0,57,0.00,,,0.00,meteohub,2013-07-18 15:24:00,
2013-07-18 08:29:00,70.9,52.3,30.01,East,101,3.0,4.0,52,0.00,,,0.00,meteohub,2013-07-18 15:29:00,
2013-07-18 08:34:00,72.5,52.3,30.01,NE,38,2.0,6.0,49,0.00,,,0.00,meteohub,2013-07-18 15:34:00,
2013-07-18 08:39:00,73.2,53.4,30.01,NNE,26,1.0,6.0,50,0.00,,,0.00,meteohub,2013-07-18 15:39:00,
2013-07-18 08:44:00,73.9,53.6,30.01,NNE,26,0.0,6.0,49,0.00,,,0.00,meteohub,2013-07-18 15:44:00,
2013-07-18 08:49:00,74.5,53.4,30.02,NE,55,3.0,6.0,48,0.00,,,0.00,meteohub,2013-07-18 15:49:00,
2013-07-18 08:54:00,75.0,54.5,30.01,NE,53,2.0,5.0,49,0.00,,,0.00,meteohub,2013-07-18 15:54:00,
2013-07-18 08:59:00,75.4,54.3,30.02,NE,55,4.0,5.0,48,0.00,,,0.00,meteohub,2013-07-18 15:59:00,
2013-07-18 09:04:00,75.2,53.1,30.01,NE,53,2.0,5.0,46,0.00,,,0.00,meteohub,2013-07-18 16:04:00,
2013-07-18 09:09:00,75.0,52.9,30.01,NE,49,3.0,6.0,46,0.00,,,0.00,meteohub,2013-07-18 16:09:00,
2013-07-18 09:14:00,75.2,53.6,30.01,NE,53,3.0,6.0,47,0.00,,,0.00,meteohub,2013-07-18 16:14:00,
2013-07-18 09:19:00,75.4,53.8,30.01,ENE,61,1.0,6.0,47,0.00,,,0.00,meteohub,2013-07-18 16:19:00,
2013-07-18 09:24:00,75.6,54.0,30.01,NE,40,4.0,7.0,47,0.00,,,0.00,meteohub,2013-07-18 16:24:00,
2013-07-18 09:29:00,75.9,54.3,30.01,NE,49,1.0,7.0,47,0.00,,,0.00,meteohub,2013-07-18 16:29:00,
2013-07-18 09:34:00,76.5,54.1,30.01,North,9,2.0,7.0,46,0.00,,,0.00,meteohub,2013-07-18 16:34:00,
2013-07-18 09:39:00,77.0,53.4,30.01,NNE,25,4.0,6.0,44,0.00,,,0.00,meteohub,2013-07-18 16:39:00,
2013-07-18 09:44:00,77.4,54.3,30.00,NNE,26,0.0,7.0,45,0.00,,,0.00,meteohub,2013-07-18 16:44:00,
2013-07-18 09:49:00,77.7,54.1,30.00,NE,34,4.0,7.0,44,0.00,,,0.00,meteohub,2013-07-18 16:49:00,
2013-07-18 09:54:00,78.1,54.3,30.00,NE,49,3.0,7.0,44,0.00,,,0.00,meteohub,2013-07-18 16:54:00,
2013-07-18 09:59:00,78.3,54.0,30.00,NNE,20,3.0,7.0,43,0.00,,,0.00,meteohub,2013-07-18 16:59:00,
2013-07-18 10:04:00,78.6,54.3,30.00,NE,56,0.0,7.0,43,0.00,,,0.00,meteohub,2013-07-18 17:04:00,
2013-07-18 10:09:00,79.2,55.4,30.00,NE,51,0.0,7.0,44,0.00,,,0.00,meteohub,2013-07-18 17:09:00,
2013-07-18 10:14:00,79.5,55.0,30.00,NE,37,1.0,7.0,43,0.00,,,0.00,meteohub,2013-07-18 17:14:00,
2013-07-18 10:19:00,80.1,54.9,30.00,NNE,32,4.0,4.0,42,0.00,,,0.00,meteohub,2013-07-18 17:19:00,
2013-07-18 10:24:00,80.4,56.5,30.00,SSW,198,1.0,4.0,44,0.00,,,0.00,meteohub,2013-07-18 17:24:00,
2013-07-18 10:29:00,80.2,54.3,30.00,SW,223,3.0,5.0,41,0.00,,,0.00,meteohub,2013-07-18 17:29:00,
2013-07-18 10:34:00,79.3,54.3,30.00,South,182,5.0,5.0,42,0.00,,,0.00,meteohub,2013-07-18 17:34:00,
2013-07-18 10:39:00,78.6,54.9,30.00,South,182,4.0,6.0,44,0.00,,,0.00,meteohub,2013-07-18 17:39:00,
2013-07-18 10:44:00,78.6,56.1,30.00,South,183,2.0,6.0,46,0.00,,,0.00,meteohub,2013-07-18 17:44:00,
2013-07-18 10:49:00,78.6,55.6,30.00,South,183,3.0,6.0,45,0.00,,,0.00,meteohub,2013-07-18 17:49:00,
2013-07-18 10:54:00,78.4,56.5,30.00,South,183,4.0,6.0,47,0.00,,,0.00,meteohub,2013-07-18 17:54:00,
2013-07-18 10:59:00,78.6,57.2,30.00,South,184,2.0,5.0,48,0.00,,,0.00,meteohub,2013-07-18 17:59:00,
2013-07-18 11:04:00,79.0,56.5,30.00,South,186,3.0,6.0,46,0.00,,,0.00,meteohub,2013-07-18 18:04:00,
2013-07-18 11:09:00,78.8,56.3,30.00,SSW,206,4.0,6.0,46,0.00,,,0.00,meteohub,2013-07-18 18:09:00,
2013-07-18 11:14:00,79.0,57.0,30.00,SSW,205,3.0,6.0,47,0.00,,,0.00,meteohub,2013-07-18 18:14:00,
2013-07-18 11:19:00,79.0,57.0,30.00,SSW,203,4.0,6.0,47,0.00,,,0.00,meteohub,2013-07-18 18:19:00,
2013-07-18 11:24:00,78.8,58.1,30.00,SSW,204,4.0,6.0,49,0.00,,,0.00,meteohub,2013-07-18 18:24:00,
2013-07-18 11:29:00,78.6,56.7,30.00,SSW,201,5.0,6.0,47,0.00,,,0.00,meteohub,2013-07-18 18:29:00,
2013-07-18 11:34:00,78.3,57.0,30.01,SSW,195,6.0,7.0,48,0.00,,,0.00,meteohub,2013-07-18 18:34:00,
2013-07-18 11:39:00,78.3,57.0,30.00,SSW,198,6.0,7.0,48,0.00,,,0.00,meteohub,2013-07-18 18:39:00,
2013-07-18 11:44:00,78.3,57.0,30.00,SSW,199,3.0,7.0,48,0.00,,,0.00,meteohub,2013-07-18 18:44:00,
2013-07-18 11:49:00,78.3,56.3,30.00,SSW,198,4.0,7.0,47,0.00,,,0.00,meteohub,2013-07-18 18:49:00,
2013-07-18 11:54:00,78.4,57.7,30.00,SSW,197,4.0,7.0,49,0.00,,,0.00,meteohub,2013-07-18 18:54:00,
2013-07-18 11:59:00,78.6,57.2,30.00,SSW,194,4.0,7.0,48,0.00,,,0.00,meteohub,2013-07-18 18:59:00,
2013-07-18 12:04:00,79.0,57.6,30.00,SSW,194,3.0,7.0,48,0.00,,,0.00,meteohub,2013-07-18 19:04:00,
2013-07-18 12:09:00,79.3,57.9,30.00,SSW,192,3.0,6.0,48,0.00,,,0.00,meteohub,2013-07-18 19:09:00,
2013-07-18 12:15:00,79.9,57.2,30.00,South,191,3.0,6.0,46,0.00,,,0.00,meteohub,2013-07-18 19:15:00,
2013-07-18 12:20:00,80.1,57.4,30.00,SSE,163,6.0,7.0,46,0.00,,,0.00,meteohub,2013-07-18 19:20:00,
2013-07-18 12:25:00,80.8,58.1,30.00,SW,235,3.0,8.0,46,0.00,,,0.00,meteohub,2013-07-18 19:25:00,
2013-07-18 12:30:00,81.1,57.7,30.00,SW,223,5.0,8.0,45,0.00,,,0.00,meteohub,2013-07-18 19:30:00,
2013-07-18 12:35:00,81.7,57.6,29.99,SW,233,4.0,8.0,44,0.00,,,0.00,meteohub,2013-07-18 19:35:00,
2013-07-18 12:40:00,82.0,57.4,29.99,SW,230,4.0,7.0,43,0.00,,,0.00,meteohub,2013-07-18 19:40:00,
2013-07-18 12:45:00,81.7,56.3,29.99,South,171,4.0,7.0,42,0.00,,,0.00,meteohub,2013-07-18 19:45:00,
2013-07-18 12:50:00,81.1,56.5,29.99,SSE,163,3.0,7.0,43,0.00,,,0.00,meteohub,2013-07-18 19:50:00,
2013-07-18 12:55:00,81.0,56.3,29.99,South,172,5.0,7.0,43,0.00,,,0.00,meteohub,2013-07-18 19:55:00,
2013-07-18 13:00:00,81.0,55.8,29.99,South,172,4.0,8.0,42,0.00,,,0.00,meteohub,2013-07-18 20:00:00,
2013-07-18 13:05:00,81.1,55.9,29.99,South,180,3.0,8.0,42,0.00,,,0.00,meteohub,2013-07-18 20:05:00,
2013-07-18 13:10:00,81.7,57.0,29.99,SSW,204,4.0,8.0,43,0.00,,,0.00,meteohub,2013-07-18 20:10:00,
2013-07-18 13:15:00,82.2,56.1,29.99,WSW,240,3.0,7.0,41,0.00,,,0.00,meteohub,2013-07-18 20:15:00,
2013-07-18 13:20:00,82.8,57.4,29.99,SW,225,4.0,9.0,42,0.00,,,0.00,meteohub,2013-07-18 20:20:00,
2013-07-18 13:25:00,83.1,57.6,29.99,South,175,2.0,9.0,42,0.00,,,0.00,meteohub,2013-07-18 20:25:00,
2013-07-18 13:30:00,83.1,54.9,29.99,SSW,208,2.0,9.0,38,0.00,,,0.00,meteohub,2013-07-18 20:30:00,
2013-07-18 13:35:00,83.5,55.2,29.99,South,181,4.0,8.0,38,0.00,,,0.00,meteohub,2013-07-18 20:35:00,
2013-07-18 13:40:00,83.5,55.9,29.99,South,174,4.0,8.0,39,0.00,,,0.00,meteohub,2013-07-18 20:40:00,
2013-07-18 13:45:00,83.5,54.5,29.99,WSW,243,4.0,8.0,37,0.00,,,0.00,meteohub,2013-07-18 20:45:00,
2013-07-18 13:50:00,84.0,57.7,29.98,SW,217,5.0,9.0,41,0.00,,,0.00,meteohub,2013-07-18 20:50:00,
2013-07-18 13:55:00,84.0,56.5,29.98,South,187,5.0,9.0,39,0.00,,,0.00,meteohub,2013-07-18 20:55:00,
2013-07-18 14:00:00,84.2,55.8,29.98,SSW,202,3.0,9.0,38,0.00,,,0.00,meteohub,2013-07-18 21:00:00,
2013-07-18 14:05:00,84.6,56.8,29.98,SSW,200,5.0,8.0,39,0.00,,,0.00,meteohub,2013-07-18 21:05:00,
2013-07-18 14:10:00,84.6,56.1,29.98,South,183,6.0,7.0,38,0.00,,,0.00,meteohub,2013-07-18 21:10:00,
2013-07-18 14:15:00,84.4,56.7,29.98,South,186,4.0,7.0,39,0.00,,,0.00,meteohub,2013-07-18 21:15:00,
2013-07-18 14:20:00,84.4,56.7,29.98,South,169,5.0,8.0,39,0.00,,,0.00,meteohub,2013-07-18 21:20:00,
2013-07-18 14:25:00,84.6,56.8,29.98,South,177,2.0,8.0,39,0.00,,,0.00,meteohub,2013-07-18 21:25:00,
2013-07-18 14:30:00,84.7,57.0,29.98,SSW,207,3.0,11.0,39,0.00,,,0.00,meteohub,2013-07-18 21:30:00,
2013-07-18 14:35:00,85.3,55.2,29.97,SW,229,3.0,11.0,36,0.00,,,0.00,meteohub,2013-07-18 21:35:00,
2013-07-18 14:40:00,85.6,57.2,29.97,West,261,4.0,11.0,38,0.00,,,0.00,meteohub,2013-07-18 21:40:00,
2013-07-18 14:45:00,85.5,58.5,29.97,WSW,250,5.0,8.0,40,0.00,,,0.00,meteohub,2013-07-18 21:45:00,
2013-07-18 14:50:00,85.5,57.7,29.97,WSW,258,4.0,10.0,39,0.00,,,0.00,meteohub,2013-07-18 21:50:00,
2013-07-18 14:55:00,85.6,57.9,29.97,WSW,248,5.0,10.0,39,0.00,,,0.00,meteohub,2013-07-18 21:55:00,
2013-07-18 15:00:00,85.6,57.9,29.97,SSW,202,7.0,10.0,39,0.00,,,0.00,meteohub,2013-07-18 22:00:00,
2013-07-18 15:05:00,85.6,58.5,29.96,SW,218,6.0,10.0,40,0.00,,,0.00,meteohub,2013-07-18 22:05:00,
2013-07-18 15:10:00,85.6,58.5,29.96,SSW,192,3.0,10.0,40,0.00,,,0.00,meteohub,2013-07-18 22:10:00,
2013-07-18 15:15:00,85.6,58.5,29.96,SSE,168,5.0,10.0,40,0.00,,,0.00,meteohub,2013-07-18 22:15:00,
2013-07-18 15:20:00,85.6,59.2,29.96,SSW,201,5.0,11.0,41,0.00,,,0.00,meteohub,2013-07-18 22:20:00,
2013-07-18 15:25:00,85.6,59.2,29.96,SSE,167,6.0,11.0,41,0.00,,,0.00,meteohub,2013-07-18 22:25:00,
2013-07-18 15:30:00,85.6,59.2,29.96,South,190,3.0,11.0,41,0.00,,,0.00,meteohub,2013-07-18 22:30:00,
2013-07-18 15:35:00,85.8,58.6,29.96,WSW,245,9.0,10.0,40,0.00,,,0.00,meteohub,2013-07-18 22:35:00,
2013-07-18 15:40:00,86.4,59.2,29.95,WSW,248,5.0,10.0,40,0.00,,,0.00,meteohub,2013-07-18 22:40:00,
2013-07-18 15:45:00,86.7,59.5,29.95,South,172,7.0,10.0,40,0.00,,,0.00,meteohub,2013-07-18 22:45:00,
2013-07-18 15:50:00,87.1,59.2,29.95,SSE,152,6.0,10.0,39,0.00,,,0.00,meteohub,2013-07-18 22:50:00,
2013-07-18 15:55:00,87.1,59.2,29.95,South,173,8.0,9.0,39,0.00,,,0.00,meteohub,2013-07-18 22:55:00,
2013-07-18 16:00:00,87.1,59.2,29.95,South,171,6.0,10.0,39,0.00,,,0.00,meteohub,2013-07-18 23:00:00,
2013-07-18 16:05:00,87.3,59.4,29.94,WSW,258,5.0,10.0,39,0.00,,,0.00,meteohub,2013-07-18 23:05:00,
2013-07-18 16:10:00,87.3,59.9,29.94,South,185,5.0,10.0,40,0.00,,,0.00,meteohub,2013-07-18 23:10:00,
2013-07-18 16:15:00,87.1,59.2,29.94,SSE,165,3.0,8.0,39,0.00,,,0.00,meteohub,2013-07-18 23:15:00,
2013-07-18 16:20:00,86.9,59.0,29.94,SSW,200,3.0,8.0,39,0.00,,,0.00,meteohub,2013-07-18 23:20:00,
2013-07-18 16:25:00,87.1,59.2,29.94,SSE,153,12.0,12.0,39,0.00,,,0.00,meteohub,2013-07-18 23:25:00,
2013-07-18 16:30:00,86.5,58.6,29.94,SSE,161,4.0,13.0,39,0.00,,,0.00,meteohub,2013-07-18 23:30:00,
2013-07-18 16:35:00,86.7,58.8,29.94,SW,223,2.0,13.0,39,0.00,,,0.00,meteohub,2013-07-18 23:35:00,
2013-07-18 16:40:00,86.9,55.2,29.93,WSW,253,6.0,13.0,34,0.00,,,0.00,meteohub,2013-07-18 23:40:00,
2013-07-18 16:46:00,87.3,52.9,29.93,SSW,199,8.0,12.0,31,0.00,,,0.00,meteohub,2013-07-18 23:46:00,
2013-07-18 16:51:00,87.4,53.1,29.93,West,277,7.0,12.0,31,0.00,,,0.00,meteohub,2013-07-18 23:51:00,
2013-07-18 16:56:00,87.3,50.2,29.93,WSW,238,7.0,12.0,28,0.00,,,0.00,meteohub,2013-07-18 23:56:00,
2013-07-18 17:01:00,87.4,57.2,29.93,West,271,6.0,12.0,36,0.00,,,0.00,meteohub,2013-07-19 00:01:00,
2013-07-18 17:06:00,87.3,49.3,29.93,WNW,283,6.0,12.0,27,0.00,,,0.00,meteohub,2013-07-19 00:06:00,
2013-07-18 17:11:00,87.4,57.9,29.92,West,260,3.0,11.0,37,0.00,,,0.00,meteohub,2013-07-19 00:11:00,
2013-07-18 17:16:00,87.4,57.9,29.92,WSW,252,4.0,10.0,37,0.00,,,0.00,meteohub,2013-07-19 00:16:00,
2013-07-18 17:21:00,87.6,57.4,29.92,WSW,255,4.0,10.0,36,0.00,,,0.00,meteohub,2013-07-19 00:21:00,
2013-07-18 17:26:00,87.4,52.2,29.92,WNW,299,6.0,9.0,30,0.00,,,0.00,meteohub,2013-07-19 00:26:00,
2013-07-18 17:31:00,87.4,54.9,29.92,SW,223,4.0,8.0,33,0.00,,,0.00,meteohub,2013-07-19 00:31:00,
2013-07-18 17:36:00,87.4,45.1,29.92,SW,218,2.0,10.0,23,0.00,,,0.00,meteohub,2013-07-19 00:36:00,
2013-07-18 17:41:00,87.4,47.3,29.92,SSW,210,7.0,10.0,25,0.00,,,0.00,meteohub,2013-07-19 00:41:00,
2013-07-18 17:46:00,87.3,48.2,29.92,WSW,242,5.0,10.0,26,0.00,,,0.00,meteohub,2013-07-19 00:46:00,
2013-07-18 17:51:00,87.3,48.2,29.92,SW,215,3.0,10.0,26,0.00,,,0.00,meteohub,2013-07-19 00:51:00,
2013-07-18 17:56:00,87.1,44.8,29.92,SW,232,5.0,10.0,23,0.00,,,0.00,meteohub,2013-07-19 00:56:00,
2013-07-18 18:01:00,86.7,46.8,29.91,WSW,258,4.0,10.0,25,0.00,,,0.00,meteohub,2013-07-19 01:01:00,
2013-07-18 18:06:00,86.5,44.4,29.92,SSW,213,7.0,11.0,23,0.00,,,0.00,meteohub,2013-07-19 01:06:00,
2013-07-18 18:11:00,86.2,44.1,29.92,SW,223,5.0,11.0,23,0.00,,,0.00,meteohub,2013-07-19 01:11:00,
2013-07-18 18:16:00,85.8,42.6,29.91,SW,234,5.0,11.0,22,0.00,,,0.00,meteohub,2013-07-19 01:16:00,
2013-07-18 18:21:00,85.5,42.3,29.92,SW,233,11.0,11.0,22,0.00,,,0.00,meteohub,2013-07-19 01:21:00,
2013-07-18 18:26:00,85.3,41.0,29.91,West,275,6.0,11.0,21,0.00,,,0.00,meteohub,2013-07-19 01:26:00,
2013-07-18 18:31:00,85.3,41.0,29.91,SSW,211,6.0,11.0,21,0.00,,,0.00,meteohub,2013-07-19 01:31:00,
2013-07-18 18:36:00,84.9,44.1,29.91,WSW,254,6.0,11.0,24,0.00,,,0.00,meteohub,2013-07-19 01:36:00,
2013-07-18 18:41:00,84.7,54.1,29.91,South,176,4.0,11.0,35,0.00,,,0.00,meteohub,2013-07-19 01:41:00,
2013-07-18 18:46:00,83.8,55.6,29.91,SW,217,6.0,11.0,38,0.00,,,0.00,meteohub,2013-07-19 01:46:00,
2013-07-18 18:51:00,82.9,55.4,29.91,SSW,194,7.0,11.0,39,0.00,,,0.00,meteohub,2013-07-19 01:51:00,
2013-07-18 18:56:00,82.0,55.4,29.91,SW,218,3.0,9.0,40,0.00,,,0.00,meteohub,2013-07-19 01:56:00,
2013-07-18 19:01:00,81.3,54.7,29.91,SSW,205,5.0,9.0,40,0.00,,,0.00,meteohub,2013-07-19 02:01:00,
2013-07-18 19:06:00,80.8,54.9,29.91,SSW,196,4.0,9.0,41,0.00,,,0.00,meteohub,2013-07-19 02:06:00,
2013-07-18 19:11:00,80.2,54.3,29.91,SW,230,3.0,7.0,41,0.00,,,0.00,meteohub,2013-07-19 02:11:00,
2013-07-18 19:16:00,79.7,54.0,29.91,SSW,196,5.0,7.0,41,0.00,,,0.00,meteohub,2013-07-19 02:16:00,
2013-07-18 19:21:00,79.2,54.7,29.91,SSW,205,3.0,7.0,43,0.00,,,0.00,meteohub,2013-07-19 02:21:00,
2013-07-18 19:26:00,78.6,54.9,29.91,South,191,3.0,7.0,44,0.00,,,0.00,meteohub,2013-07-19 02:26:00,
2013-07-18 19:31:00,78.1,55.0,29.91,South,188,4.0,7.0,45,0.00,,,0.00,meteohub,2013-07-19 02:31:00,
2013-07-18 19:36:00,77.5,55.0,29.91,SSW,211,5.0,7.0,46,0.00,,,0.00,meteohub,2013-07-19 02:36:00,
2013-07-18 19:41:00,77.0,55.2,29.91,South,187,3.0,7.0,47,0.00,,,0.00,meteohub,2013-07-19 02:41:00,
2013-07-18 19:46:00,76.6,56.1,29.91,South,186,1.0,7.0,49,0.00,,,0.00,meteohub,2013-07-19 02:46:00,
2013-07-18 19:51:00,76.1,55.6,29.91,SSW,192,2.0,7.0,49,0.00,,,0.00,meteohub,2013-07-19 02:51:00,
2013-07-18 19:56:00,75.7,55.2,29.91,SSW,192,3.0,6.0,49,0.00,,,0.00,meteohub,2013-07-19 02:56:00,
2013-07-18 20:01:00,75.6,54.5,29.91,SSW,192,2.0,5.0,48,0.00,,,0.00,meteohub,2013-07-19 03:01:00,
2013-07-18 20:06:00,75.4,53.2,29.91,SSW,197,3.0,5.0,46,0.00,,,0.00,meteohub,2013-07-19 03:06:00,
2013-07-18 20:11:00,75.2,53.1,29.91,South,187,5.0,6.0,46,0.00,,,0.00,meteohub,2013-07-19 03:11:00,
2013-07-18 20:16:00,75.0,52.2,29.91,SSW,196,4.0,6.0,45,0.00,,,0.00,meteohub,2013-07-19 03:16:00,
2013-07-18 20:21:00,74.8,52.2,29.91,SSW,196,3.0,6.0,45,0.00,,,0.00,meteohub,2013-07-19 03:21:00,
2013-07-18 20:27:00,74.7,53.1,29.91,SSW,196,2.0,5.0,47,0.00,,,0.00,meteohub,2013-07-19 03:27:00,
2013-07-18 20:32:00,73.9,52.5,29.91,SSW,196,2.0,4.0,47,0.00,,,0.00,meteohub,2013-07-19 03:32:00,
2013-07-18 20:37:00,73.4,52.0,29.91,SSW,196,2.0,3.0,47,0.00,,,0.00,meteohub,2013-07-19 03:37:00,
2013-07-18 20:42:00,72.9,52.5,29.91,SSW,196,4.0,4.0,49,0.00,,,0.00,meteohub,2013-07-19 03:42:00,
2013-07-18 20:47:00,72.1,53.1,29.91,SSW,196,2.0,4.0,51,0.00,,,0.00,meteohub,2013-07-19 03:47:00,
2013-07-18 20:52:00,71.8,53.2,29.91,SW,224,3.0,4.0,52,0.00,,,0.00,meteohub,2013-07-19 03:52:00,
2013-07-18 20:57:00,71.2,53.2,29.91,South,186,3.0,5.0,53,0.00,,,0.00,meteohub,2013-07-19 03:57:00,
2013-07-18 21:01:00,70.9,54.0,29.91,SSW,213,2.0,5.0,55,0.00,,,0.00,meteohub,2013-07-19 04:01:00,
2013-07-18 21:06:00,70.3,54.0,29.91,SSW,213,2.0,5.0,56,0.00,,,0.00,meteohub,2013-07-19 04:06:00,
2013-07-18 21:11:00,70.0,53.6,29.91,SSW,213,3.0,5.0,56,0.00,,,0.00,meteohub,2013-07-19 04:11:00,
2013-07-18 21:16:00,69.4,53.6,29.91,SSW,213,3.0,4.0,57,0.00,,,0.00,meteohub,2013-07-19 04:16:00,
2013-07-18 21:21:00,69.3,53.8,29.91,SSW,213,2.0,4.0,58,0.00,,,0.00,meteohub,2013-07-19 04:21:00,
2013-07-18 21:26:00,68.9,53.6,29.91,SSW,213,2.0,4.0,58,0.00,,,0.00,meteohub,2013-07-19 04:26:00,
2013-07-18 21:31:00,68.5,53.2,29.91,SSW,213,3.0,4.0,58,0.00,,,0.00,meteohub,2013-07-19 04:31:00,
2013-07-18 21:36:00,68.4,53.1,29.91,SSW,213,2.0,4.0,58,0.00,,,0.00,meteohub,2013-07-19 04:36:00,
2013-07-18 21:41:00,68.2,53.2,29.91,SSW,213,1.0,4.0,59,0.00,,,0.00,meteohub,2013-07-19 04:41:00,
2013-07-18 21:46:00,67.8,53.4,29.91,SSW,213,1.0,4.0,60,0.00,,,0.00,meteohub,2013-07-19 04:46:00,
2013-07-18 21:51:00,67.8,54.0,29.91,SSW,213,3.0,3.0,61,0.00,,,0.00,meteohub,2013-07-19 04:51:00,
2013-07-18 21:56:00,67.6,53.8,29.91,SSW,213,2.0,3.0,61,0.00,,,0.00,meteohub,2013-07-19 04:56:00,
2013-07-18 22:01:00,67.6,53.8,29.91,SSW,213,3.0,3.0,61,0.00,,,0.00,meteohub,2013-07-19 05:01:00,
2013-07-18 22:06:00,67.6,53.8,29.91,SSW,213,2.0,3.0,61,0.00,,,0.00,meteohub,2013-07-19 05:06:00,
2013-07-18 22:11:00,67.5,53.6,29.91,SSW,213,3.0,4.0,61,0.00,,,0.00,meteohub,2013-07-19 05:11:00,
2013-07-18 22:16:00,67.3,53.8,29.91,SSW,213,0.0,4.0,62,0.00,,,0.00,meteohub,2013-07-19 05:16:00,
2013-07-18 22:21:00,67.1,53.6,29.91,SSW,213,3.0,4.0,62,0.00,,,0.00,meteohub,2013-07-19 05:21:00,
2013-07-18 22:26:00,66.9,53.4,29.91,SSW,213,2.0,4.0,62,0.00,,,0.00,meteohub,2013-07-19 05:26:00,
2013-07-18 22:32:00,66.9,54.0,29.91,SSW,213,1.0,4.0,63,0.00,,,0.00,meteohub,2013-07-19 05:32:00,
2013-07-18 22:37:00,66.9,54.0,29.91,SSW,213,0.0,4.0,63,0.00,,,0.00,meteohub,2013-07-19 05:37:00,
2013-07-18 22:42:00,66.7,53.2,29.91,SSW,213,0.0,3.0,62,0.00,,,0.00,meteohub,2013-07-19 05:42:00,
2013-07-18 22:47:00,66.4,53.4,29.91,SSW,213,0.0,3.0,63,0.00,,,0.00,meteohub,2013-07-19 05:47:00,
2013-07-18 22:52:00,66.2,53.6,29.91,SSW,213,1.0,3.0,64,0.00,,,0.00,meteohub,2013-07-19 05:52:00,
2013-07-18 22:57:00,66.2,53.6,29.91,SSW,213,1.0,3.0,64,0.00,,,0.00,meteohub,2013-07-19 05:57:00,
2013-07-18 23:02:00,66.4,53.4,29.91,SSW,213,0.0,3.0,63,0.00,,,0.00,meteohub,2013-07-19 06:02:00,
2013-07-18 23:07:00,66.4,53.4,29.91,SSW,213,0.0,3.0,63,0.00,,,0.00,meteohub,2013-07-19 06:07:00,
2013-07-18 23:12:00,66.2,53.2,29.91,SSW,213,0.0,2.0,63,0.00,,,0.00,meteohub,2013-07-19 06:12:00,
2013-07-18 23:17:00,66.0,53.1,29.91,SSW,213,0.0,1.0,63,0.00,,,0.00,meteohub,2013-07-19 06:17:00,
2013-07-18 23:22:00,66.0,53.1,29.91,SSW,213,0.0,1.0,63,0.00,,,0.00,meteohub,2013-07-19 06:22:00,
2013-07-18 23:27:00,66.0,53.1,29.91,SSW,213,0.0,0.0,63,0.00,,,0.00,meteohub,2013-07-19 06:27:00,
2013-07-18 23:32:00,66.4,53.4,29.91,SSW,213,0.0,1.0,63,0.00,,,0.00,meteohub,2013-07-19 06:32:00,
2013-07-18 23:37:00,66.7,53.2,29.90,SSW,213,0.0,1.0,62,0.00,,,0.00,meteohub,2013-07-19 06:37:00,
2013-07-18 23:42:00,66.7,53.2,29.90,SSW,213,0.0,1.0,62,0.00,,,0.00,meteohub,2013-07-19 06:42:00,
2013-07-18 23:47:00,66.6,53.1,29.90,SSW,213,0.0,1.0,62,0.00,,,0.00,meteohub,2013-07-19 06:47:00,
2013-07-18 23:52:00,66.4,52.9,29.90,SSW,213,0.0,0.0,62,0.00,,,0.00,meteohub,2013-07-19 06:52:00,
2013-07-18 23:57:00,65.8,52.9,29.90,SSW,213,0.0,0.0,63,0.00,,,0.00,meteohub,2013-07-19 06:57:00,